MEARES Weather Reports


time (UTC)temp
C
wind
direction
speed
KPH
gust
KPH
rain 1hr
cm
rain 24hr
cm
rain mn
cm
humidity
%
barometer
mb
20211017145514 11 23 3.2 9.7 0.03 0.61 0.33 44
20211017145013 11 46 3.2 9.7 0.03 0.61 0.33 45
20211017144513 11 46 1.6 9.7 0.03 0.61 0.33 46
20211017144013 11 29 0.0 4.8 0.03 0.61 0.33 44
20211017143513 11 0 0.0 0.0 0.03 0.61 0.33 43
20211017143013 11 0 0.0 0.0 0.03 0.61 0.33 39
20211017142513 11 0 0.0 0.0 0.03 0.61 0.33 39
20211017142013 11 0 0.0 0.0 0.00 0.61 0.33 33
20211017141513 11 0 0.0 0.0 0.00 0.61 0.30 51
20211017141013 11 0 0.0 0.0 0.00 0.61 0.30 29
20211017140514 11 0 0.0 0.0 0.00 0.61 0.30 32
20211017140013 11 0 0.0 0.0 0.03 0.61 0.30 35
20211017135536 11 0 0.0 0.0 0.03 0.61 0.30 32
20211017135013 12 0 0.0 0.0 0.03 0.61 0.30 31
20211017134513 12 0 0.0 6.4 0.03 0.61 0.30 32
20211017134013 11 350 0.0 6.4 0.03 0.61 0.30 34
20211017133513 12 320 0.0 6.4 0.03 0.61 0.30 34
20211017133013 12 9 0.0 6.4 0.03 0.61 0.30 34
20211017132514 12 357 0.0 6.4 0.03 0.61 0.30 34
20211017132013 11 21 0.0 6.4 0.03 0.61 0.30 35
20211017131513 11 347 1.6 8.0 0.03 0.61 0.30 35
20211017131013 11 9 3.2 8.0 0.03 0.61 0.30 34
20211017130513 11 25 1.6 8.0 0.03 0.61 0.30 34
20211017130013 12 347 3.2 11.3 0.00 0.61 0.30 32
20211017125513 11 347 6.4 11.3 0.00 0.61 0.28 25
20211017125013 12 12 4.8 11.3 0.00 0.61 0.28 32
20211017124513 12 357 1.6 9.7 0.00 0.61 0.28 31
20211017124013 12 22 1.6 14.5 0.00 0.61 0.28 31
20211017123513 12 7 4.8 14.5 0.00 0.61 0.28 31
20211017123013 12 32 4.8 14.5 0.00 0.61 0.28 25
20211017122515 12 357 3.2 12.9 0.00 0.61 0.28 29
20211017122013 12 26 3.2 12.9 0.03 0.64 0.28 26
20211017121513 12 22 4.8 12.9 0.03 0.64 0.28 23
20211017121013 12 357 4.8 11.3 0.03 0.64 0.28 27
20211017120513 12 23 3.2 11.3 0.03 0.64 0.28 23
20211017120013 12 19 1.6 11.3 0.03 0.64 0.28 28
20211017115513 12 8 6.4 12.9 0.03 0.64 0.28 25
20211017115013 12 22 3.2 12.9 0.03 0.64 0.28 26
20211017114513 12 22 4.8 12.9 0.03 0.64 0.28 28
20211017114013 12 26 3.2 11.3 0.03 0.64 0.28 28
20211017113513 12 15 4.8 11.3 0.03 0.64 0.28 25
20211017113014 12 2 3.2 11.3 0.03 0.64 0.28 25
20211017112515 12 348 4.8 11.3 0.03 0.64 0.28 29
20211017112013 12 8 1.6 9.7 0.00 0.64 0.25 29
20211017111513 12 15 3.2 9.7 0.00 0.64 0.25 30
20211017111013 12 22 0.0 11.3 0.03 0.64 0.25 30
20211017110513 12 26 3.2 11.3 0.03 0.64 0.25 23
20211017110013 12 26 6.4 11.3 0.03 0.64 0.25 21
20211017105513 12 2 1.6 11.3 0.03 0.64 0.25 25
20211017105013 12 12 3.2 12.9 0.03 0.64 0.25 24
20211017104513 12 8 4.8 12.9 0.03 0.64 0.25 24
20211017104013 12 343 3.2 12.9 0.03 0.64 0.25 24
20211017103513 12 344 1.6 12.9 0.03 0.64 0.25 32
20211017103013 12 357 3.2 12.9 0.03 0.64 0.25 31
20211017102513 12 338 1.6 9.7 0.03 0.64 0.25 31
20211017102013 12 26 1.6 9.7 0.03 0.64 0.25 31
20211017101513 12 313 0.0 9.7 0.03 0.64 0.25 32
20211017101013 12 2 1.6 9.7 0.00 0.64 0.23 32
20211017100513 12 15 0.0 9.7 0.00 0.64 0.23 32
20211017100013 12 348 0.0 9.7 0.00 0.64 0.23 32
20211017095513 12 44 0.0 9.7 0.00 0.64 0.23 32
20211017094513 12 327 1.6 8.0 0.00 0.64 0.23 32
20211017094013 12 303 0.0 8.0 0.03 0.64 0.23 32
20211017093513 12 9 1.6 11.3 0.03 0.64 0.23 31
20211017093015 12 32 1.6 11.3 0.03 0.64 0.23 31
20211017092517 12 2 1.6 11.3 0.03 0.64 0.23 32
20211017092013 12 9 1.6 11.3 0.03 0.64 0.23 29
20211017091513 12 4 4.8 11.3 0.03 0.64 0.23 26
20211017091013 12 0 3.2 11.3 0.03 0.64 0.23 29
20211017090513 12 312 0.0 12.9 0.03 0.64 0.23 29
20211017090014 12 357 3.2 12.9 0.03 0.64 0.23 29
20211017085513 12 16 6.4 12.9 0.03 0.64 0.23 21
20211017085013 12 351 4.8 12.9 0.03 0.64 0.23 21
20211017084513 12 25 6.4 12.9 0.03 0.64 0.23 21
20211017084013 12 331 1.6 12.9 0.03 0.64 0.20 22
20211017083514 12 29 3.2 12.9 0.03 0.64 0.20 25
20211017083013 12 351 3.2 14.5 0.03 0.64 0.20 21
20211017082514 12 11 4.8 14.5 0.03 0.64 0.20 23
20211017082013 12 47 6.4 14.5 0.03 0.64 0.20 19
20211017081515 12 357 4.8 11.3 0.03 0.64 0.20 25
20211017081013 12 19 3.2 11.3 0.03 0.64 0.20 23
20211017080513 12 357 1.6 12.9 0.03 0.64 0.20 22
20211017080013 12 21 4.8 12.9 0.03 0.64 0.20 21
20211017075513 12 354 1.6 12.9 0.03 0.64 0.20 28
20211017075013 12 9 3.2 11.3 0.03 0.64 0.20 23
20211017074513 12 23 1.6 11.3 0.03 0.64 0.20 21
20211017074013 12 18 4.8 11.3 0.00 0.64 0.20 22
20211017073513 12 357 4.8 9.7 0.00 0.64 0.18 23
20211017073013 12 22 1.6 9.7 0.00 0.64 0.18 20
20211017072513 12 352 1.6 11.3 0.00 0.64 0.18 27
20211017072013 12 32 1.6 11.3 0.00 0.66 0.18 28
20211017071513 12 4 0.0 11.3 0.00 0.66 0.18 28
20211017071013 12 26 3.2 12.9 0.03 0.66 0.18 26
20211017070513 12 2 1.6 12.9 0.03 0.66 0.18 23
20211017070013 12 357 3.2 12.9 0.03 0.66 0.18 23
20211017065513 12 22 4.8 12.9 0.03 0.66 0.18 22
20211017065013 12 16 4.8 11.3 0.03 0.66 0.18 28
20211017064513 12 350 1.6 9.7 0.03 0.66 0.18 27
20211017064013 12 29 3.2 9.7 0.03 0.66 0.18 28
20211017063513 12 4 3.2 9.7 0.03 0.66 0.18 26
20211017063014 12 2 1.6 8.0 0.03 0.66 0.18 28
20211017062016 12 348 1.6 12.9 0.03 0.69 0.18 25
20211017061513 12 2 3.2 12.9 0.03 0.69 0.18 22
20211017061013 12 26 3.2 11.3 0.03 0.69 0.18 22
20211017060513 13 1 4.8 11.3 0.03 0.69 0.15 19
20211017060013 12 355 3.2 9.7 0.03 0.69 0.15 23
20211017055513 12 2 3.2 14.5 0.03 0.69 0.15 17
20211017055013 13 18 4.8 14.5 0.03 0.69 0.15 17
20211017054513 12 15 4.8 14.5 0.03 0.69 0.15 17
20211017054013 12 28 6.4 12.9 0.03 0.69 0.15 20
20211017053513 12 1 3.2 12.9 0.03 0.69 0.15 22
20211017053013 12 22 4.8 12.9 0.03 0.69 0.15 21
20211017052513 12 43 1.6 12.9 0.03 0.69 0.15 21
20211017052013 12 16 4.8 12.9 0.03 0.69 0.15 22
20211017051513 12 29 3.2 12.9 0.03 0.69 0.15 26
20211017051013 12 357 3.2 11.3 0.00 0.69 0.15 21
20211017050513 12 23 4.8 11.3 0.00 0.69 0.13 22
20211017050013 12 4 4.8 11.3 0.00 0.69 0.13 21
20211017045513 12 357 3.2 14.5 0.00 0.69 0.13 22
20211017045013 12 347 4.8 14.5 0.03 0.69 0.13 20
20211017044513 12 345 6.4 14.5 0.03 0.69 0.13 21
20211017044013 12 357 6.4 12.9 0.03 0.69 0.13 21
20211017043513 13 357 3.2 12.9 0.03 0.69 0.13 21
20211017043013 13 350 6.4 12.9 0.03 0.69 0.13 21
20211017042514 13 357 1.6 12.9 0.03 0.69 0.13 21
20211017042013 13 4 3.2 12.9 0.03 0.69 0.13 24
20211017041513 13 7 4.8 14.5 0.03 0.69 0.13 24
20211017041013 13 357 6.4 14.5 0.03 0.69 0.13 24
20211017040513 13 1 6.4 14.5 0.03 0.69 0.13 22
20211017040013 13 21 4.8 14.5 0.05 0.69 0.13 24
20211017035513 13 19 4.8 14.5 0.05 0.69 0.13 20
20211017035013 13 35 4.8 12.9 0.03 0.69 0.10 20
20211017034513 13 7 4.8 14.5 0.03 0.69 0.10 20
20211017033513 13 15 6.4 14.5 0.03 0.69 0.10 21
20211017033013 13 330 6.4 12.9 0.03 0.69 0.10 24
20211017032513 13 26 4.8 12.9 0.03 0.69 0.10 24
20211017032013 13 12 4.8 12.9 0.03 0.71 0.10 20
20211017031513 13 12 4.8 12.9 0.03 0.71 0.10 19
20211017031013 13 11 4.8 12.9 0.03 0.71 0.10 20
20211017030514 13 1 3.2 16.1 0.03 0.71 0.10 19
20211017030013 13 352 4.8 16.1 0.00 0.71 0.10 18
20211017025513 13 15 4.8 16.1 0.00 0.71 0.08 21
20211017025013 13 4 4.8 14.5 0.00 0.71 0.08 25
20211017024515 13 39 4.8 14.5 0.00 0.71 0.08 25
20211017024015 13 12 6.4 14.5 0.03 0.71 0.08 22
20211017023513 13 36 8.0 16.1 0.03 0.71 0.08 23
20211017023013 13 30 4.8 16.1 0.03 0.71 0.08 22
20211017022513 13 9 4.8 16.1 0.03 0.71 0.08 23
20211017022013 13 16 6.4 17.7 0.03 0.74 0.08 25
20211017021513 12 29 8.0 17.7 0.03 0.74 0.08 22
20211017021013 12 11 8.0 17.7 0.03 0.74 0.08 23
20211017020513 12 9 6.4 16.1 0.03 0.74 0.08 23
20211017020013 13 1 9.7 17.7 0.05 0.74 0.08 20
20211017015513 13 11 6.4 17.7 0.05 0.74 0.08 19
20211017014513 13 15 9.7 17.7 0.05 0.74 0.08 22
20211017014013 13 9 6.4 17.7 0.03 0.74 0.08 21
20211017013513 13 340 6.4 17.7 0.03 0.74 0.05 18
20211017013013 13 11 8.0 16.1 0.03 0.74 0.05 18
20211017012514 13 33 9.7 16.1 0.03 0.74 0.05 20
20211017012013 13 357 6.4 16.1 0.03 0.76 0.05 20
20211017011512 13 5 6.4 19.3 0.03 0.76 0.05 19
20211017011013 13 11 6.4 19.3 0.03 0.76 0.05 18
20211017010513 13 357 9.7 19.3 0.03 0.76 0.05 18
20211017010013 13 5 9.7 20.9 0.00 0.76 0.05 18
20211017005513 13 36 6.4 20.9 0.00 0.76 0.03 18
20211017005013 13 4 8.0 20.9 0.03 0.76 0.03 20
20211017004513 14 19 9.7 19.3 0.03 0.76 0.03 20
20211017004013 14 54 9.7 17.7 0.03 0.76 0.03 20
20211017003513 14 35 6.4 16.1 0.03 0.76 0.03 18
20211017003013 14 22 9.7 16.1 0.03 0.76 0.03 18
20211017002512 15 14 4.8 14.5 0.03 0.76 0.03 15
20211017002015 15 29 6.4 12.9 0.03 0.79 0.03 16
20211017001512 15 29 4.8 11.3 0.03 0.79 0.03 17
20211017001013 15 15 4.8 11.3 0.05 0.79 0.03 15
20211017000513 15 357 1.6 9.7 0.05 0.79 0.03 16
20211017000012 15 2 3.2 9.7 0.05 0.79 0.03 16
20211016235512 15 21 0.0 9.7 0.05 0.79 0.03 17
20211016235013 15 1 3.2 9.7 0.03 0.79 0.03 12
20211016234512 15 357 1.6 9.7 0.03 0.79 0.00 18
20211016234012 15 357 1.6 9.7 0.03 0.79 0.00 14
20211016233013 15 338 4.8 12.9 0.03 0.79 0.00 14
20211016232513 15 1 3.2 12.9 0.03 0.79 0.00 15
20211016232012 15 25 3.2 12.9 0.03 0.81 0.00 15
20211016231512 15 21 4.8 12.9 0.03 0.81 0.79 13
20211016231013 15 26 4.8 11.3 0.03 0.81 0.79 15
20211016230513 15 7 4.8 14.5 0.03 0.81 0.76 13
20211016230012 15 348 3.2 14.5 0.03 0.81 0.76 16
20211016225513 15 15 3.2 14.5 0.03 0.81 0.76 14
20211016225012 15 11 4.8 17.7 0.03 0.81 0.76 14
20211016224512 15 22 3.2 17.7 0.03 0.81 0.76 16
20211016224012 15 2 4.8 17.7 0.03 0.81 0.76 15
20211016223512 15 11 6.4 19.3 0.03 0.81 0.76 15
20211016223013 15 46 4.8 19.3 0.05 0.81 0.76 16
20211016222512 15 23 3.2 19.3 0.05 0.81 0.76 14
20211016222012 15 16 6.4 17.7 0.05 0.84 0.76 14
20211016221512 15 4 6.4 16.1 0.05 0.84 0.76 14
20211016221012 16 26 6.4 14.5 0.03 0.84 0.76 12
20211016220512 15 26 4.8 12.9 0.03 0.84 0.74 12
20211016220012 15 345 1.6 12.9 0.03 0.84 0.74 12
20211016215513 15 35 3.2 12.9 0.03 0.84 0.74 12
20211016214012 15 21 3.2 14.5 0.03 0.84 0.74 13
20211016213512 15 12 4.8 17.7 0.03 0.84 0.74 15
20211016213012 15 352 1.6 17.7 0.03 0.84 0.71 15
20211016212512 15 5 6.4 17.7 0.03 0.84 0.71 14
20211016212012 15 350 4.8 14.5 0.03 0.89 0.71 13
20211016211512 15 331 1.6 16.1 0.03 0.89 0.71 17
20211016211014 15 337 3.2 16.1 0.03 0.89 0.71 16
20211016210513 15 39 4.8 16.1 0.03 0.89 0.71 14
20211016210013 15 336 0.0 14.5 0.03 0.89 0.71 13
20211016205512 15 29 4.8 14.5 0.03 0.89 0.71 11
20211016205012 15 357 4.8 14.5 0.05 0.89 0.71 14
20211016204512 15 14 3.2 14.5 0.05 0.89 0.71 10
20211016204012 15 0 6.4 19.3 0.05 0.89 0.71 12
20211016203512 15 22 8.0 19.3 0.05 0.89 0.71 10
20211016203012 15 5 8.0 19.3 0.03 0.89 0.69 12
20211016202512 15 26 6.4 17.7 0.03 0.89 0.69 11
20211016202012 15 9 4.8 16.1 0.03 0.97 0.69 10
20211016201513 15 36 8.0 16.1 0.03 0.97 0.69 14
20211016201012 15 357 6.4 14.5 0.03 0.97 0.69 11
20211016200512 15 351 4.8 14.5 0.03 0.97 0.69 9
20211016200013 15 16 6.4 17.7 0.05 0.97 0.69 13
20211016195513 15 344 4.8 17.7 0.05 0.97 0.69 12
20211016195012 15 333 6.4 17.7 0.03 0.97 0.66 11
20211016194512 15 8 6.4 12.9 0.03 0.97 0.66 13
20211016194012 15 16 1.6 12.9 0.03 0.97 0.66 10
20211016193512 15 348 1.6 14.5 0.03 0.97 0.66 14
20211016193012 15 39 1.6 14.5 0.03 0.97 0.66 12
20211016192512 15 310 0.0 14.5 0.03 0.97 0.66 16
20211016192013 15 337 1.6 12.9 0.05 0.99 0.66 16
20211016191512 15 341 1.6 11.3 0.05 0.99 0.66 16
20211016191012 15 338 0.0 12.9 0.05 0.99 0.66 15
20211016190512 15 326 6.4 12.9 0.05 0.99 0.66 17
20211016190013 14 333 3.2 12.9 0.03 0.99 0.66 16
20211016185512 14 333 1.6 11.3 0.03 0.99 0.64 17
20211016185012 14 357 1.6 11.3 0.03 0.99 0.64 18
20211016184512 14 30 0.0 9.7 0.03 0.99 0.64 18
20211016184012 14 357 0.0 9.7 0.03 0.99 0.64 17
20211016183512 14 352 0.0 8.0 0.03 0.99 0.64 17
20211016183012 13 330 0.0 8.0 0.03 0.99 0.64 18
20211016182512 13 330 0.0 11.3 0.03 0.99 0.64 17
20211016182012 13 355 0.0 11.3 0.03 1.04 0.64 19
20211016181512 13 21 1.6 11.3 0.03 1.04 0.61 17
20211016181012 13 313 0.0 9.7 0.03 1.04 0.61 17
20211016180512 13 345 3.2 9.7 0.03 1.04 0.61 18
20211016180012 13 21 0.0 9.7 0.03 1.04 0.61 18
20211016175512 13 323 0.0 9.7 0.03 1.04 0.61 18
20211016175012 13 2 1.6 9.7 0.03 1.04 0.61 18
20211016174512 13 18 0.0 12.9 0.03 1.04 0.61 18
20211016174012 13 340 0.0 12.9 0.03 1.04 0.61 17
20211016173513 13 312 3.2 12.9 0.03 1.04 0.61 17
20211016173012 13 316 4.8 12.9 0.05 1.04 0.61 19
20211016172512 13 295 4.8 14.5 0.05 1.04 0.61 20
20211016172012 13 323 4.8 14.5 0.03 1.04 0.61 19
20211016171512 13 320 8.0 14.5 0.03 1.04 0.58 19
20211016171012 12 324 3.2 12.9 0.03 1.04 0.58 17
20211016170512 12 324 6.4 12.9 0.03 1.04 0.58 19
20211016170012 12 281 8.0 12.9 0.03 1.04 0.58 18
20211016165012 12 319 6.4 12.9 0.03 1.04 0.58 20
20211016164512 12 310 4.8 12.9 0.03 1.04 0.58 21
20211016164012 12 341 4.8 11.3 0.05 1.04 0.58 19
20211016163512 12 334 1.6 11.3 0.05 1.04 0.58 17
20211016163012 12 324 1.6 12.9 0.03 1.04 0.56 20
20211016162512 12 312 3.2 12.9 0.03 1.04 0.56 19
20211016162012 12 316 4.8 12.9 0.03 1.04 0.56 20
20211016161512 12 322 3.2 12.9 0.03 1.04 0.56 22
20211016161012 12 299 1.6 12.9 0.03 1.04 0.56 21
20211016160513 12 323 4.8 12.9 0.03 1.04 0.56 20
20211016160012 12 322 4.8 16.1 0.03 1.04 0.56 19
20211016155512 12 350 3.2 16.1 0.03 1.04 0.56 22
20211016155012 12 16 8.0 16.1 0.05 1.04 0.56 15
20211016154512 12 329 4.8 14.5 0.05 1.04 0.56 22
20211016154012 12 316 4.8 14.5 0.03 1.04 0.56 19
20211016153512 12 333 6.4 14.5 0.03 1.04 0.53 18
20211016153012 12 327 6.4 14.5 0.03 1.04 0.53 19
20211016152512 12 313 4.8 12.9 0.03 1.04 0.53 19
20211016152012 12 329 4.8 12.9 0.03 1.07 0.53 19
20211016151512 12 333 3.2 11.3 0.03 1.07 0.53 19
20211016150013 12 324 4.8 12.9 0.03 1.07 0.53 20